Camp Point, IL

2:09 PM CST on December 08, 2016 (GMT -0600)
Quincy Regional-Baldwin

Weather History for KUIN - October, 2012

Change the Weather History Date:

Thursday, October 11, 2012

  Actual Average Record
Temperature  
Mean Temperature 53 °F 56 °F  
Max Temperature 68 °F 67 °F 88 °F (1962)
Min Temperature 37 °F 46 °F 26 °F (1906)
Degree Days  
Heating Degree Days 12 9  
Month to date heating degree days 148 88  
Since 1 July heating degree days 233 175  
Cooling Degree Days 0 1  
Month to date cooling degree days 0 12  
Year to date cooling degree days 1552 1088  
Growing Degree Days 2 (Base 50)    
Moisture  
Dew Point 39 °F    
Average Humidity 59    
Maximum Humidity 77    
Minimum Humidity 40    
Precipitation  
Precipitation 0.00 in 0.09 in 0.92 in (1931)
Month to date precipitation 0.62 1.10  
Year to date precipitation 19.18 30.15  
Sea Level Pressure  
Sea Level Pressure 30.15 in    
Wind  
Wind Speed 9 mph (SSW)    
Max Wind Speed 17 mph    
Max Gust Speed 24 mph    
Visibility 10 miles    
Events      
T = Trace of Precipitation, MM = Missing Value Source: NWS Daily Summary

Daily Weather History Graph

Daily Weather History Graph

Search for Another Location

Airport or City:

Trip Planner

Search our weather history database for the weather conditions in past years. The results will help you decide how hot, cold, wet, or windy it might be!

Date:

Astronomy

Oct. 11, 2012 Rise Set
Actual Time 7:11 AM CDT 6:30 PM CDT
Civil Twilight 6:44 AM CDT 6:57 PM CDT
Nautical Twilight 6:13 AM CDT 7:28 PM CDT
Astronomical Twilight 5:41 AM CDT 8:00 PM CDT
Moon 2:50 AM CDT (10/11) 4:06 PM CDT (10/11)
Length of Visible Light 12h 13m
Length of Day
11h 18m
Waning Crescent, 18% of the Moon is Illuminated
Oct 11
Waning Crescent
Oct 15
New
Oct 21
First Quarter
Oct 29
Full
Nov 6
Last Quarter

Hourly Weather History & Observations

Time (CDT) Temp. Windchill Dew Point Humidity Pressure Visibility Wind Dir Wind Speed Gust Speed Precip Events Conditions
12:54 AM 41.0 °F 37.1 °F 30.9 °F 67% 30.18 in 10.0 mi South 5.8 mph - N/A   Clear
1:54 AM 42.1 °F 38.4 °F 30.9 °F 65% 30.18 in 10.0 mi South 5.8 mph - N/A   Clear
2:54 AM 37.9 °F 32.7 °F 30.9 °F 76% 30.18 in 10.0 mi SSW 6.9 mph - N/A   Clear
3:54 AM 37.9 °F 32.7 °F 30.9 °F 76% 30.17 in 10.0 mi SSW 6.9 mph - N/A   Clear
4:54 AM 37.9 °F 32.7 °F 30.9 °F 76% 30.18 in 10.0 mi South 6.9 mph - N/A   Clear
5:54 AM 39.9 °F 34.5 °F 30.9 °F 70% 30.18 in 10.0 mi South 8.1 mph - N/A   Clear
6:54 AM 42.1 °F 36.6 °F 30.9 °F 65% 30.17 in 10.0 mi South 9.2 mph - N/A   Clear
7:54 AM 43.0 °F 37.2 °F 32.0 °F 65% 30.18 in 10.0 mi South 10.4 mph - N/A   Clear
8:54 AM 46.9 °F - 33.1 °F 59% 30.18 in 10.0 mi South 11.5 mph - N/A   Clear
9:54 AM 51.1 °F - 34.0 °F 52% 30.19 in 10.0 mi South 11.5 mph - N/A   Clear
10:54 AM 55.0 °F - 36.0 °F 49% 30.18 in 10.0 mi South 12.7 mph - N/A   Clear
11:54 AM 60.1 °F - 37.9 °F 44% 30.16 in 10.0 mi South 11.5 mph - N/A   Clear
12:54 PM 64.0 °F - 39.9 °F 41% 30.13 in 10.0 mi SSW 15.0 mph 24.2 mph N/A   Clear
1:54 PM 66.9 °F - 42.1 °F 40% 30.11 in 10.0 mi SSW 16.1 mph 20.7 mph N/A   Clear
2:54 PM 66.9 °F - 43.0 °F 42% 30.09 in 10.0 mi SSW 9.2 mph - N/A   Clear
3:54 PM 66.9 °F - 45.0 °F 45% 30.08 in 10.0 mi SW 10.4 mph - N/A   Clear
4:54 PM 66.2 °F - 46.4 °F 49% 30.08 in 10.0 mi SW 11.5 mph - N/A   Clear
5:54 PM 64.0 °F - 46.9 °F 54% 30.09 in 10.0 mi SSW 9.2 mph - N/A   Clear
6:54 PM 59.0 °F - 46.0 °F 62% 30.11 in 10.0 mi SSW 4.6 mph - N/A   Clear
7:54 PM 57.0 °F - 46.0 °F 67% 30.13 in 10.0 mi SSW 5.8 mph - N/A   Partly Cloudy
8:54 PM 55.9 °F - 46.9 °F 72% 30.15 in 10.0 mi SSW 8.1 mph - N/A   Mostly Cloudy
9:54 PM 55.9 °F - 46.9 °F 72% 30.18 in 10.0 mi NW 8.1 mph - N/A   Clear
10:54 PM 53.1 °F - 46.0 °F 77% 30.19 in 10.0 mi Calm Calm - N/A   Clear
11:54 PM 50.0 °F - 39.9 °F 68% 30.22 in 10.0 mi North 8.1 mph - N/A   Clear